GW1765 Weather Reports


time (UTC)temp
C
wind
direction
speed
KPH
gust
KPH
rain 1hr
cm
rain 24hr
cm
rain mn
cm
humidity
%
barometer
mb
20260901161111 10 225 1.6 6.4 0.00 0.10 0.10 91 1019.0
20260901160108 10 233 4.8 12.9 0.00 0.10 0.10 91 1019.0
20260901155104 10 227 3.2 12.9 0.00 0.10 0.10 91 1018.7
20260901154100 10 231 0.0 6.4 0.00 0.10 0.10 91 1018.8
20260901153058 10 220 1.6 4.8 0.00 0.10 0.10 90 1018.7
20260901152053 10 204 3.2 6.4 0.00 0.10 0.10 90 1018.9
20260901151050 10 229 1.6 6.4 0.00 0.10 0.10 90 1019.0
20260901150046 10 245 0.0 4.8 0.00 0.10 0.10 90 1019.0
20260901145043 10 217 0.0 3.2 0.00 0.10 0.10 89 1019.2
20260901144039 10 135 0.0 3.2 0.00 0.10 0.10 89 1019.2
20260901143057 10 270 0.0 3.2 0.03 0.10 0.10 88 1019.3
20260901142032 10 237 3.2 8.0 0.03 0.10 0.10 88 1019.5
20260901141028 10 268 3.2 6.4 0.03 0.10 0.10 87 1019.5
20260901140045 10 191 3.2 8.0 0.05 0.10 0.10 86 1019.5
20260901135043 10 203 11.3 17.7 0.05 0.10 0.10 85 1019.6
20260901134018 10 220 12.9 22.5 0.10 0.10 0.10 84 1019.6
20260901133115 10 212 4.8 8.0 0.05 0.05 0.05 84 1019.5
20260901132111 10 218 6.4 11.3 0.05 0.05 0.05 83 1019.6
20260901131108 10 226 6.4 14.5 0.05 0.05 0.05 83 1019.6
20260901130105 10 180 6.4 11.3 0.03 0.03 0.03 82 1019.6
20260901125101 10 196 4.8 17.7 0.03 0.03 0.03 82 1019.7
20260901124057 10 168 1.6 6.4 0.00 0.00 0.00 82 1019.7
20260901123115 10 177 3.2 6.4 0.00 0.00 0.00 82 1019.6
20260901122052 10 211 3.2 6.4 0.00 0.00 0.00 81 1019.6
20260901121047 9 213 6.4 11.3 0.00 0.00 0.00 81 1019.6
20260901120043 9 270 4.8 9.7 0.00 0.00 0.00 81 1019.6
20260901115042 9 250 6.4 11.3 0.00 0.00 0.00 81 1019.5
20260901114057 9 221 8.0 12.9 0.00 0.03 0.00 81 1019.4
20260901113053 10 223 6.4 9.7 0.00 0.10 0.00 81 1019.3
20260901112031 10 215 8.0 12.9 0.00 0.10 0.00 81 1019.3
20260901111026 10 192 8.0 12.9 0.00 0.10 0.00 80 1019.3
20260901110103 9 189 8.0 12.9 0.00 0.10 0.00 80 1019.3
20260901105019 9 189 9.7 16.1 0.00 0.10 0.00 80 1019.4
20260901104018 9 180 11.3 16.1 0.00 0.10 0.00 80 1019.3
20260901103112 9 194 14.5 20.9 0.00 0.10 0.00 81 1019.4
20260901102151 10 199 17.7 25.7 0.00 0.10 0.00 81 1019.5
20260901101105 9 211 14.5 24.1 0.00 0.10 0.00 81 1019.5
20260901095058 10 253 16.1 22.5 0.00 0.10 0.00 82 1019.3
20260901094055 10 230 17.7 27.4 0.00 0.10 0.00 82 1019.2
20260901093053 9 228 12.9 19.3 0.00 0.13 0.00 81 1019.0
20260901092048 9 219 11.3 17.7 0.00 0.15 0.00 79 1018.8
20260901091044 9 200 9.7 16.1 0.00 0.20 0.00 78 1018.8
20260901090041 9 200 6.4 9.7 0.00 0.20 0.00 76 1018.8
20260901085037 9 183 4.8 6.4 0.00 0.20 0.00 75 1019.0
20260901084056 10 231 8.0 12.9 0.00 0.20 0.00 74 1018.9
20260901083052 10 213 12.9 20.9 0.00 0.20 0.00 73 1018.9
20260901082049 10 180 9.7 12.9 0.00 0.20 0.00 73 1018.7
20260901081045 10 148 8.0 12.9 0.00 0.20 0.00 73 1018.7
20260901080020 10 185 12.9 17.7 0.00 0.20 0.00 73 1018.7
20260901075018 10 167 14.5 20.9 0.00 0.20 0.00 73 1018.6
20260901074136 10 195 17.7 22.5 0.00 0.20 0.00 74 1018.6
20260901073109 10 200 20.9 25.7 0.00 0.20 0.00 74 1018.6
20260901072108 10 204 19.3 27.4 0.00 0.20 0.00 75 1018.4
20260901071104 10 214 20.9 29.0 0.00 0.20 0.00 75 1018.3
20260901070059 10 204 19.3 29.0 0.00 0.20 0.00 76 1018.1
20260901065058 10 216 19.3 30.6 0.00 0.20 0.00 76 1017.9
20260901064054 10 227 16.1 24.1 0.00 0.20 0.00 75 1017.8
20260901063111 10 258 17.7 30.6 0.00 0.20 0.00 74 1017.6
20260901062046 10 215 14.5 22.5 0.00 0.20 0.00 73 1017.6
20260901061043 10 205 16.1 24.1 0.00 0.20 0.00 73 1017.4
20260901060038 10 192 16.1 24.1 0.00 0.20 0.00 72 1017.3
20260901055036 11 207 17.7 25.7 0.00 0.20 0.00 71 1017.4
20260901054031 11 213 19.3 29.0 0.00 0.20 0.00 71 1017.5
20260901053028 11 189 20.9 25.7 0.00 0.20 0.00 71 1017.3
20260901052044 12 206 22.5 35.4 0.00 0.20 0.00 70 1017.1
20260901051021 12 219 22.5 37.0 0.00 0.20 0.00 71 1017.2
20260901050018 12 225 25.7 37.0 0.00 0.20 0.00 71 1017.0
20260901045114 11 224 25.7 40.2 0.00 0.20 0.00 70 1017.0
20260901044112 12 212 27.4 37.0 0.00 0.20 0.00 70 1016.9
20260901043110 12 221 22.5 33.8 0.00 0.20 0.00 67 1016.8
20260901042104 12 197 25.7 38.6 0.00 0.20 0.00 69 1016.7
20260901041100 12 218 22.5 37.0 0.00 0.23 0.00 67 1016.7
20260901040119 12 196 27.4 37.0 0.00 0.23 0.00 66 1016.7
20260901035113 12 197 25.7 35.4 0.00 0.23 0.00 63 1016.6
20260901034049 13 225 22.5 32.2 0.00 0.23 0.00 62 1016.7
20260901033046 13 215 25.7 32.2 0.00 0.23 0.00 63 1016.6
20260901032042 12 207 25.7 35.4 0.00 0.23 0.00 62 1016.5
20260901031101 13 213 27.4 37.0 0.00 0.28 0.00 59 1016.4
20260901030035 14 218 27.4 37.0 0.00 0.28 0.00 58 1016.2
20260901025032 14 217 29.0 43.5 0.00 0.28 0.00 60 1016.1
20260901024028 13 222 29.0 40.2 0.00 0.28 0.00 57 1016.0
20260901023046 14 231 32.2 43.5 0.00 0.28 0.00 56 1016.0
20260901022021 15 225 32.2 45.1 0.00 0.28 0.00 57 1015.9
20260901021038 13 229 32.2 43.5 0.00 0.28 0.00 55 1015.7
20260901020116 14 222 33.8 48.3 0.00 0.28 0.00 55 1015.8
20260901015111 13 230 33.8 46.7 0.00 0.28 0.00 57 1015.8
20260901014107 13 220 32.2 46.7 0.00 0.28 0.00 60 1016.1
20260901013126 14 208 30.6 43.5 0.00 0.28 0.00 61 1016.2
20260901012101 14 220 33.8 43.5 0.00 0.28 0.00 61 1016.4
20260901011117 14 216 33.8 46.7 0.00 0.28 0.00 61 1016.5
20260901010054 15 213 32.2 43.5 0.00 0.28 0.00 61 1016.5
20260901005049 15 233 25.7 41.8 0.00 0.28 0.00 63 1016.6
20260901004047 13 237 27.4 37.0 0.00 0.28 0.00 61 1016.7
20260901003043 14 214 33.8 48.3 0.00 0.28 0.00 62 1016.9
20260901002039 13 213 32.2 46.7 0.00 0.28 0.00 62 1016.8
20260901001036 13 186 30.6 48.3 0.00 0.28 0.00 62 1016.8
20260901000032 13 222 37.0 48.3 0.00 0.28 0.00 60 1016.8
20260831235049 14 211 35.4 48.3 0.00 0.28 0.00 60 1016.6
20260831234027 14 217 33.8 45.1 0.00 0.28 0.00 58 1016.7
20260831233022 14 221 37.0 49.9 0.00 0.28 0.00 59 1016.7
20260831232019 14 217 35.4 57.9 0.00 0.30 0.00 61 1016.6
20260831231115 13 219 37.0 51.5 0.00 0.30 0.00 61 1016.6
20260831230113 13 233 33.8 43.5 0.00 0.30 0.00 64 1016.6
20260831225110 12 203 37.0 48.3 0.00 0.30 0.00 67 1016.7
20260831224105 13 208 33.8 53.1 0.00 0.30 0.00 61 1016.7
20260831223101 13 217 35.4 46.7 0.00 0.30 0.00 62 1016.6
20260831222058 13 219 35.4 49.9 0.00 0.30 0.00 61 1016.5
20260831221054 13 212 30.6 43.5 0.00 0.36 0.00 61 1016.4
20260831220053 13 230 32.2 43.5 0.00 0.36 0.00 64 1016.3
20260831215047 12 216 32.2 45.1 0.00 0.36 0.00 70 1016.2
20260831214044 12 193 29.0 38.6 0.00 0.36 0.00 76 1015.9
20260831213040 10 218 27.4 37.0 0.00 0.36 0.00 74 1015.8
20260831212039 10 216 27.4 38.6 0.00 0.36 0.00 74 1015.8
20260831211033 10 213 32.2 45.1 0.00 0.36 0.00 75 1015.7
20260831210035 11 216 29.0 40.2 0.00 0.36 0.00 79 1015.7
20260831205026 10 222 27.4 38.6 0.00 0.36 0.00 81 1015.5
20260831204023 9 230 27.4 38.6 0.00 0.36 0.00 80 1015.5
20260831203021 9 198 33.8 54.7 0.00 0.36 0.00 80 1015.5
20260831202036 9 224 27.4 54.7 0.00 0.36 0.00 80 1015.3
20260831201112 8 197 25.7 38.6 0.00 0.36 0.00 80 1015.1
20260831200110 8 222 22.5 29.0 0.00 0.36 0.00 80 1014.8
20260831195105 8 226 20.9 33.8 0.00 0.46 0.00 79 1014.4
20260831194102 8 230 27.4 41.8 0.00 0.46 0.00 78 1014.2
20260831193100 8 210 25.7 45.1 0.00 0.46 0.00 78 1014.1
20260831192055 8 221 19.3 30.6 0.00 0.48 0.00 78 1014.0
20260831191054 8 199 22.5 33.8 0.00 0.48 0.00 79 1013.8
20260831190048 8 231 24.1 33.8 0.00 0.48 0.00 80 1013.8
20260831185045 8 221 25.7 40.2 0.00 0.48 0.00 81 1013.4
20260831184042 8 211 20.9 35.4 0.00 0.48 0.00 80 1013.2
20260831183037 8 223 17.7 25.7 0.00 0.48 0.00 80 1013.3
20260831182033 8 232 22.5 32.2 0.00 0.48 0.00 80 1013.3
20260831181032 8 209 29.0 48.3 0.00 0.51 0.00 80 1013.2
20260831180027 8 216 25.7 33.8 0.00 0.51 0.00 79 1013.2
20260831175043 8 202 35.4 43.5 0.00 0.51 0.00 78 1013.1
20260831174020 8 212 27.4 43.5 0.00 0.51 0.00 78 1012.9
20260831173019 8 216 25.7 35.4 0.00 0.51 0.00 77 1012.9
20260831172136 8 197 24.1 33.8 0.00 0.51 0.00 77 1012.8
20260831171130 8 195 30.6 43.5 0.00 0.51 0.00 79 1012.7
20260831170106 8 233 30.6 38.6 0.00 0.51 0.00 79 1012.7
20260831165102 8 228 25.7 45.1 0.00 0.51 0.00 79 1012.6
20260831164119 8 230 20.9 32.2 0.00 0.51 0.00 77 1012.4
20260831163057 8 180 25.7 33.8 0.00 0.51 0.00 76 1012.3
20260831162052 8 192 30.6 40.2 0.00 0.51 0.00 75 1012.2